Location: Bodest
(46.3000°N, 22.5667°E)
Time: 00:07:25
(UTC+00:00)

ATLAS 5 CENTAUR R/B - Pass Details

Date: 16 October 2021
Orbit: 497 x 1159 km, 63.4° (Epoch: 25 November)

Event Time Altitude Azimuth Distance (km) Brightness Sun altitude
Rises 18:41:56 0° 248° (WSW) 2,623 5.4 -31.5°
Reaches altitude 10° 18:44:11 10° 260° (W) 1,784 4.6 -31.9°
Enters shadow 18:46:05 22° 283° (WNW) 1,226 3.7 -32.2°
